Back to catalog

STARLINK-4439

AliveCommunicationsSSO
NORAD 53498·PAYLOAD·🇺🇸 United States

Launched Aug 12, 2022 from Vandenberg Space Force Base

Loading…

Next Passes (next 24 hours)

TLE

FreshSource: CelesTrak SupGP

Epoch: Sep 14, 2026, 14:28 UTC

1 53498C 22099AK  26257.60326389  .00026100  00000+0  81050-3 0  2572
2 53498  97.2865  15.3065 0001320  95.0262 306.0529 15.33414373    18

Track STARLINK-4439 in real time with AllMySat

Download on the App Store